sep=,
ESTACION,FECHA,NIVEL(m),CAUDAL RIO(m³/s),CAUDAL CANAL(m³/s),CAUDAL TOTAL(m³/s),PLUVIOMETRIA(l/m²),TEMPERATURA AIRE(ºC),CONDUCTIVIDAD(µS/cm),pH,SOLIDOS EN SUSPENSION(mg/l),TEMPERATURA AGUA(ºC),TURBIDEZ(NTU),OXIGENO(mg/l),MATERIA ORGANICA(1/m),FOSFATOS(mg/l),AMONIO(mg/l)
AFORALEKUA,DATA,MAILA(m),IBAI EMARIA(m³/s),KANAL EMARIA(m³/s),EMARI TOTALA(m³/s),PLUBIOMETRIA(l/m²),HAIZE TENPERATURA(ºC),KONDUKTIBITATEA(µS/cm),pH,SOLIDO ESEKIAK(mg/l),UR TENPERATURA(ºC),UHERTASUNA(NTU),OXIGENOA(mg/l),MATERIA ORGANIKOA(1/m),FOSFATOAK(mg/l),AMONIOA(mg/l)
ANARBE,2007-10-01,0.224,0.314,1.39,1.704,26.7,17.8,-,-,0,-,-,-,-,-,-
ANARBE,2007-10-02,0.196,0.219,1.36,1.578,0.2,17.7,-,-,0,-,-,-,-,-,-
ANARBE,2007-10-03,0.233,0.347,1.092,1.44,3.4,17.1,-,-,0,-,-,-,-,-,-
ANARBE,2007-10-04,0.257,0.426,0.946,1.372,10.4,17.6,-,-,0,-,-,-,-,-,-
ANARBE,2007-10-05,0.345,0.94,1.75,2.69,43.6,16.1,-,-,0,-,-,-,-,-,-
ANARBE,2007-10-06,0.511,2.452,2.042,4.495,5.5,15.7,-,-,0,-,-,-,-,-,-
ANARBE,2007-10-07,0.396,1.241,1.901,3.141,0.0,15.6,-,-,0,-,-,-,-,-,-
ANARBE,2007-10-08,0.33,0.785,1.834,2.619,0.1,15.7,-,-,0,-,-,-,-,-,-
ANARBE,2007-10-09,0.291,0.581,1.776,2.357,1.7,14.4,-,-,0,-,-,-,-,-,-
ANARBE,2007-10-10,0.376,1.299,1.88,3.179,40.0,13.4,-,-,0,-,-,-,-,-,-
ANARBE,2007-10-11,0.441,1.65,1.951,3.6,0.1,12.4,-,-,0,-,-,-,-,-,-
ANARBE,2007-10-12,0.379,1.103,1.873,2.976,0.0,12.9,-,-,0,-,-,-,-,-,-
ANARBE,2007-10-13,0.343,0.859,1.836,2.695,0.0,12.0,-,-,0,-,-,-,-,-,-
ANARBE,2007-10-14,0.31,0.674,1.798,2.472,0.0,13.1,-,-,0,-,-,-,-,-,-
ANARBE,2007-10-15,0.28,0.526,1.757,2.283,0.0,13.4,-,-,0,-,-,-,-,-,-
ANARBE,2007-10-16,0.26,0.437,1.689,2.125,0.0,14.3,-,-,0,-,-,-,-,-,-
ANARBE,2007-10-17,0.252,0.406,1.559,1.966,0.3,14.0,-,-,0,-,-,-,-,-,-
ANARBE,2007-10-18,0.25,0.397,1.472,1.869,0.4,14.4,-,-,0,-,-,-,-,-,-
ANARBE,2007-10-19,0.249,0.392,1.381,1.773,0.0,12.5,-,-,0,-,-,-,-,-,-
ANARBE,2007-10-20,0.247,0.385,1.282,1.667,0.0,8.2,-,-,0,-,-,-,-,-,-
ANARBE,2007-10-21,0.245,0.38,1.191,1.571,0.0,6.4,-,-,0,-,-,-,-,-,-
ANARBE,2007-10-22,0.245,0.378,1.115,1.493,0.0,8.3,-,-,0,-,-,-,-,-,-
ANARBE,2007-10-23,0.245,0.379,1.185,1.564,14.8,12.4,-,-,0,-,-,-,-,-,-
ANARBE,2007-10-24,0.239,0.358,1.342,1.7,1.0,10.5,-,-,0,-,-,-,-,-,-
ANARBE,2007-10-25,0.224,0.305,1.047,1.352,0.0,9.2,-,-,0,-,-,-,-,-,-
ANARBE,2007-10-26,0.221,0.296,0.972,1.267,0.0,9.5,-,-,0,-,-,-,-,-,-
ANARBE,2007-10-27,0.22,0.29,0.918,1.208,0.0,7.3,-,-,0,-,-,-,-,-,-
ANARBE,2007-10-28,0.218,0.284,0.873,1.156,0.0,7.9,-,-,0,-,-,-,-,-,-
ANARBE,2007-10-29,0.221,0.295,1.035,1.331,14.9,8.6,-,-,0,-,-,-,-,-,-
ANARBE,2007-10-30,0.225,0.307,1.152,1.459,13.5,9.7,-,-,0,-,-,-,-,-,-
ANARBE,2007-10-31,0.222,0.298,1.054,1.351,0.2,8.3,-,-,0,-,-,-,-,-,-
ANARBE,2007-11-01,0.218,0.285,0.902,1.187,0.0,7.5,-,-,0,-,-,-,-,-,-
ANARBE,2007-11-02,0.215,0.276,0.859,1.135,0.0,7.8,-,-,0,-,-,-,-,-,-
ANARBE,2007-11-03,0.214,0.273,0.822,1.096,0.0,10.1,-,-,0,-,-,-,-,-,-
ANARBE,2007-11-04,0.215,0.274,0.791,1.065,0.0,9.8,-,-,0,-,-,-,-,-,-
ANARBE,2007-11-05,0.214,0.273,0.758,1.03,0.2,10.3,-,-,0,-,-,-,-,-,-
ANARBE,2007-11-06,0.212,0.266,0.701,0.967,0.0,8.8,-,-,0,-,-,-,-,-,-
ANARBE,2007-11-07,0.211,0.264,0.706,0.97,0.0,6.2,-,-,0,-,-,-,-,-,-
ANARBE,2007-11-08,0.211,0.264,0.675,0.939,0.0,4.9,-,-,0,-,-,-,-,-,-
ANARBE,2007-11-09,0.21,0.26,0.66,0.92,0.2,8.6,-,-,0,-,-,-,-,-,-
ANARBE,2007-11-10,0.209,0.256,0.626,0.882,0.0,4.3,-,-,0,-,-,-,-,-,-
ANARBE,2007-11-11,0.21,0.261,0.616,0.876,0.0,3.3,-,-,0,-,-,-,-,-,-
ANARBE,2007-11-12,0.208,0.254,0.609,0.864,0.0,7.1,-,-,0,-,-,-,-,-,-
ANARBE,2007-11-13,0.207,0.251,0.594,0.845,0.0,8.0,-,-,0,-,-,-,-,-,-
ANARBE,2007-11-14,0.215,0.277,0.97,1.247,21.7,9.1,-,-,0,-,-,-,-,-,-
ANARBE,2007-11-15,0.21,0.261,0.803,1.064,0.3,3.8,-,-,0,-,-,-,-,-,-
ANARBE,2007-11-16,0.212,0.265,0.683,0.948,0.0,-1.5,-,-,0,-,-,-,-,-,-
ANARBE,2007-11-17,0.21,0.26,0.65,0.91,0.0,-1.9,-,-,0,-,-,-,-,-,-
ANARBE,2007-11-18,0.209,0.256,0.637,0.893,0.1,1.9,-,-,0,-,-,-,-,-,-
ANARBE,2007-11-19,0.207,0.25,0.562,0.812,0.0,10.8,-,-,0,-,-,-,-,-,-
ANARBE,2007-11-20,0.205,0.246,0.595,0.841,15.6,14.6,-,-,0,-,-,-,-,-,-
ANARBE,2007-11-21,0.215,0.274,0.893,1.167,0.3,9.2,-,-,0,-,-,-,-,-,-
ANARBE,2007-11-22,0.209,0.257,0.682,0.939,4.6,8.1,-,-,0,-,-,-,-,-,-
ANARBE,2007-11-23,0.215,0.276,0.925,1.2,10.7,7.2,-,-,0,-,-,-,-,-,-
ANARBE,2007-11-24,0.217,0.282,0.985,1.268,0.2,6.4,-,-,0,-,-,-,-,-,-
ANARBE,2007-11-25,0.216,0.277,0.849,1.126,2.8,4.5,-,-,0,-,-,-,-,-,-
ANARBE,2007-11-26,0.216,0.279,0.919,1.199,0.2,7.8,-,-,0,-,-,-,-,-,-
ANARBE,2007-11-27,0.225,0.31,0.794,1.105,0.0,7.5,-,-,0,-,-,-,-,-,-
ANARBE,2007-11-28,0.237,0.349,0.737,1.085,0.0,5.7,-,-,0,-,-,-,-,-,-
ANARBE,2007-11-29,0.236,0.346,0.722,1.068,0.0,7.6,-,-,0,-,-,-,-,-,-
ANARBE,2007-11-30,0.234,0.34,0.711,1.051,0.2,6.0,-,-,0,-,-,-,-,-,-
ANARBE,2007-12-01,0.237,0.349,0.758,1.107,9.3,6.5,-,-,0,-,-,-,-,-,-
ANARBE,2007-12-02,0.235,0.342,0.766,1.109,0.2,6.5,-,-,0,-,-,-,-,-,-
ANARBE,2007-12-03,0.303,0.715,0.861,1.576,29.3,11.1,-,-,0,-,-,-,-,-,-
ANARBE,2007-12-04,0.537,2.818,0.913,3.731,5.3,10.6,-,-,0,-,-,-,-,-,-
ANARBE,2007-12-05,0.423,1.47,0.865,2.334,0.1,8.0,-,-,0,-,-,-,-,-,-
ANARBE,2007-12-06,0.376,1.081,0.808,1.889,0.0,9.6,-,-,0,-,-,-,-,-,-
ANARBE,2007-12-07,0.415,1.475,0.717,2.192,15.0,9.4,-,-,0,-,-,-,-,-,-
ANARBE,2007-12-08,0.488,2.145,0.621,2.766,5.4,10.4,-,-,0,-,-,-,-,-,-
ANARBE,2007-12-09,0.531,2.718,0.65,3.368,21.3,11.4,-,-,0,-,-,-,-,-,-
ANARBE,2007-12-10,0.768,7.773,0.6,8.374,50.1,8.2,-,-,0,-,-,-,-,-,-
ANARBE,2007-12-11,0.749,7.238,0.096,7.334,0.3,5.9,-,-,0,-,-,-,-,-,-
ANARBE,2007-12-12,0.651,4.874,0.131,5.005,0.0,1.1,-,-,0,-,-,-,-,-,-
ANARBE,2007-12-13,0.596,3.69,0.13,3.82,0.0,-0.7,-,-,0,-,-,-,-,-,-
ANARBE,2007-12-14,0.562,3.15,0.411,3.562,0.1,0.8,-,-,0,-,-,-,-,-,-
ANARBE,2007-12-15,0.532,2.711,0.359,3.069,0.0,1.8,-,-,0,-,-,-,-,-,-
ANARBE,2007-12-16,0.506,2.359,0.21,2.568,0.1,1.0,-,-,0,-,-,-,-,-,-
ANARBE,2007-12-17,0.489,2.147,0.255,2.402,0.0,0.7,-,-,0,-,-,-,-,-,-
ANARBE,2007-12-18,0.474,1.981,0.268,2.249,0.8,5.8,-,-,0,-,-,-,-,-,-
ANARBE,2007-12-19,0.453,1.75,0.258,2.007,0.0,10.3,-,-,0,-,-,-,-,-,-
ANARBE,2007-12-20,0.44,1.62,0.248,1.867,0.0,11.1,-,-,0,-,-,-,-,-,-
ANARBE,2007-12-21,0.429,1.518,0.206,1.724,0.0,12.1,-,-,0,-,-,-,-,-,-
ANARBE,2007-12-22,0.417,1.408,0.245,1.653,0.0,10.4,-,-,0,-,-,-,-,-,-
ANARBE,2007-12-23,0.403,1.285,0.265,1.55,0.0,7.3,-,-,0,-,-,-,-,-,-
ANARBE,2007-12-24,0.397,1.237,0.28,1.517,0.0,4.8,-,-,0,-,-,-,-,-,-
ANARBE,2007-12-25,0.391,1.196,0.296,1.492,0.0,4.9,-,-,0,-,-,-,-,-,-
ANARBE,2007-12-26,0.411,1.363,0.313,1.676,12.5,6.2,-,-,0,-,-,-,-,-,-
ANARBE,2007-12-27,0.386,1.158,0.298,1.456,0.1,1.3,-,-,0,-,-,-,-,-,-
ANARBE,2007-12-28,0.377,1.087,0.292,1.379,0.1,0.7,-,-,0,-,-,-,-,-,-
ANARBE,2007-12-29,0.371,1.045,0.289,1.334,1.2,3.9,-,-,0,-,-,-,-,-,-
ANARBE,2007-12-30,0.397,1.242,0.305,1.546,11.7,7.0,-,-,0,-,-,-,-,-,-
ANARBE,2007-12-31,0.379,1.106,0.299,1.406,0.1,1.9,-,-,0,-,-,-,-,-,-
ANARBE,2008-01-01,0.369,1.036,0.296,1.332,0.1,-0.2,-,-,0,-,-,-,-,-,-
ANARBE,2008-01-02,0.281,0.622,0.584,1.206,0.1,7.2,-,-,0,-,-,-,-,-,-
ANARBE,2008-01-03,0.166,0.146,1.311,1.457,0.5,8.5,-,-,0,-,-,-,-,-,-
ANARBE,2008-01-04,0.159,0.13,1.274,1.404,0.1,5.4,-,-,0,-,-,-,-,-,-
ANARBE,2008-01-05,0.163,0.14,1.273,1.413,4.9,8.7,-,-,0,-,-,-,-,-,-
ANARBE,2008-01-06,0.168,0.15,1.284,1.434,2.7,11.1,-,-,0,-,-,-,-,-,-
ANARBE,2008-01-07,0.164,0.141,1.257,1.398,3.2,8.6,-,-,0,-,-,-,-,-,-
ANARBE,2008-01-08,0.192,0.214,1.101,1.315,0.0,8.4,-,-,0,-,-,-,-,-,-
ANARBE,2008-01-09,0.21,0.26,1.059,1.319,2.5,9.2,-,-,0,-,-,-,-,-,-
ANARBE,2008-01-10,0.208,0.254,1.008,1.261,0.0,9.9,-,-,0,-,-,-,-,-,-
ANARBE,2008-01-11,0.25,0.434,1.145,1.579,22.5,9.4,-,-,0,-,-,-,-,-,-
ANARBE,2008-01-12,0.588,4.238,1.549,5.787,38.3,6.0,-,-,0,-,-,-,-,-,-
ANARBE,2008-01-13,0.512,2.47,1.493,3.963,0.2,8.0,-,-,0,-,-,-,-,-,-
ANARBE,2008-01-14,0.437,1.592,1.433,3.024,0.3,8.1,-,-,0,-,-,-,-,-,-
ANARBE,2008-01-15,0.397,1.265,1.431,2.696,28.1,9.0,-,-,0,-,-,-,-,-,-
ANARBE,2008-01-16,0.527,2.664,1.624,4.288,12.4,8.8,-,-,0,-,-,-,-,-,-
ANARBE,2008-01-17,0.483,2.078,1.591,3.669,12.3,8.6,-,-,0,-,-,-,-,-,-
ANARBE,2008-01-18,0.695,5.977,1.802,7.779,17.5,12.1,-,-,0,-,-,-,-,-,-
ANARBE,2008-01-19,0.599,3.779,1.776,5.554,0.0,8.5,-,-,0,-,-,-,-,-,-
ANARBE,2008-01-20,0.54,2.828,1.726,4.554,0.0,5.1,-,-,0,-,-,-,-,-,-
ANARBE,2008-01-21,0.494,2.216,1.667,3.884,0.1,6.2,-,-,0,-,-,-,-,-,-
ANARBE,2008-01-22,0.445,1.684,1.926,3.61,5.3,9.2,-,-,0,-,-,-,-,-,-
ANARBE,2008-01-23,0.415,1.405,2.142,3.547,0.7,9.5,-,-,0,-,-,-,-,-,-
ANARBE,2008-01-24,0.374,1.067,2.105,3.171,0.0,8.3,-,-,0,-,-,-,-,-,-
ANARBE,2008-01-25,0.344,0.864,2.076,2.94,0.0,6.7,-,-,0,-,-,-,-,-,-
ANARBE,2008-01-26,0.317,0.711,2.036,2.747,0.0,5.7,-,-,0,-,-,-,-,-,-
ANARBE,2008-01-27,0.294,0.588,2.0,2.588,0.0,4.7,-,-,0,-,-,-,-,-,-
ANARBE,2008-01-28,0.267,0.467,1.975,2.442,0.0,3.3,-,-,0,-,-,-,-,-,-
ANARBE,2008-01-29,0.244,0.376,1.948,2.324,0.0,3.7,-,-,0,-,-,-,-,-,-
ANARBE,2008-01-30,0.228,0.322,1.93,2.252,8.6,4.8,-,-,0,-,-,-,-,-,-
ANARBE,2008-01-31,0.237,0.361,1.951,2.312,0.7,5.0,-,-,0,-,-,-,-,-,-
ANARBE,2008-02-01,0.191,0.209,1.897,2.106,7.2,7.2,-,-,0,-,-,-,-,-,-
ANARBE,2008-02-02,0.271,0.496,1.989,2.485,7.8,4.8,-,-,0,-,-,-,-,-,-
ANARBE,2008-02-03,0.203,0.245,1.917,2.162,8.2,9.2,-,-,0,-,-,-,-,-,-
ANARBE,2008-02-04,0.251,0.412,1.96,2.372,4.2,5.3,-,-,0,-,-,-,-,-,-
ANARBE,2008-02-05,0.213,0.271,1.925,2.196,0.0,8.2,-,-,0,-,-,-,-,-,-
ANARBE,2008-02-06,0.188,0.198,1.902,2.1,0.0,8.5,-,-,0,-,-,-,-,-,-
ANARBE,2008-02-07,0.167,0.147,1.879,2.026,0.0,7.0,-,-,0,-,-,-,-,-,-
ANARBE,2008-02-08,0.186,0.198,1.738,1.936,0.0,7.7,-,-,0,-,-,-,-,-,-
ANARBE,2008-02-09,0.205,0.244,1.588,1.832,0.0,8.9,-,-,0,-,-,-,-,-,-
ANARBE,2008-02-10,0.203,0.239,1.518,1.757,0.0,7.5,-,-,0,-,-,-,-,-,-
ANARBE,2008-02-11,0.201,0.234,1.465,1.699,0.0,7.3,-,-,0,-,-,-,-,-,-
ANARBE,2008-02-12,0.199,0.226,1.392,1.618,0.0,10.0,-,-,0,-,-,-,-,-,-
ANARBE,2008-02-13,0.196,0.22,1.339,1.559,0.0,9.7,-,-,0,-,-,-,-,-,-
ANARBE,2008-02-14,0.195,0.216,1.292,1.507,0.0,9.3,-,-,0,-,-,-,-,-,-
ANARBE,2008-02-15,0.193,0.212,1.247,1.459,0.0,8.7,-,-,0,-,-,-,-,-,-
ANARBE,2008-02-16,0.193,0.21,1.197,1.407,0.0,5.2,-,-,0,-,-,-,-,-,-
ANARBE,2008-02-17,0.19,0.204,1.149,1.353,0.0,11.3,-,-,0,-,-,-,-,-,-
ANARBE,2008-02-18,0.188,0.197,1.108,1.305,0.0,11.7,-,-,0,-,-,-,-,-,-
ANARBE,2008-02-19,0.186,0.193,1.088,1.28,0.0,12.9,-,-,0,-,-,-,-,-,-
ANARBE,2008-02-20,0.187,0.195,1.056,1.251,2.6,12.7,-,-,0,-,-,-,-,-,-
ANARBE,2008-02-21,0.187,0.195,1.017,1.212,0.1,10.4,-,-,0,-,-,-,-,-,-
ANARBE,2008-02-22,0.186,0.191,0.978,1.169,0.0,8.8,-,-,0,-,-,-,-,-,-
ANARBE,2008-02-23,0.183,0.184,0.947,1.131,0.0,11.0,-,-,0,-,-,-,-,-,-
ANARBE,2008-02-24,0.181,0.18,0.913,1.094,0.1,14.0,-,-,0,-,-,-,-,-,-
ANARBE,2008-02-25,0.181,0.179,0.888,1.067,0.0,13.4,-,-,0,-,-,-,-,-,-
ANARBE,2008-02-26,0.181,0.18,0.876,1.056,1.6,12.0,-,-,0,-,-,-,-,-,-
ANARBE,2008-02-27,0.203,0.247,0.795,1.042,0.6,12.9,-,-,0,-,-,-,-,-,-
ANARBE,2008-02-28,0.224,0.305,0.696,1.001,3.3,12.4,-,-,0,-,-,-,-,-,-
ANARBE,2008-02-29,0.222,0.298,0.65,0.948,0.0,12.5,-,-,0,-,-,-,-,-,-
ANARBE,2008-03-01,0.221,0.294,0.636,0.93,0.4,10.7,-,-,0,-,-,-,-,-,-
ANARBE,2008-03-02,0.221,0.293,0.612,0.906,0.0,12.2,-,-,0,-,-,-,-,-,-
ANARBE,2008-03-03,0.223,0.301,0.659,0.96,11.2,10.3,-,-,0,-,-,-,-,-,-
ANARBE,2008-03-04,0.277,0.522,1.115,1.637,27.0,6.0,-,-,0,-,-,-,-,-,-
ANARBE,2008-03-05,0.273,0.495,1.161,1.656,13.4,4.5,-,-,0,-,-,-,-,-,-
ANARBE,2008-03-06,0.237,0.349,0.996,1.345,0.0,4.5,-,-,0,-,-,-,-,-,-
ANARBE,2008-03-07,0.24,0.36,1.054,1.414,9.2,6.0,-,-,0,-,-,-,-,-,-
ANARBE,2008-03-08,0.287,0.558,1.171,1.729,3.4,7.8,-,-,0,-,-,-,-,-,-
ANARBE,2008-03-09,0.299,0.622,1.181,1.802,8.9,5.7,-,-,0,-,-,-,-,-,-
ANARBE,2008-03-10,0.312,0.687,1.185,1.872,15.7,8.6,-,-,0,-,-,-,-,-,-
ANARBE,2008-03-11,0.402,1.296,1.788,3.085,9.6,10.4,-,-,0,-,-,-,-,-,-
ANARBE,2008-03-12,0.324,0.751,2.044,2.796,0.0,11.4,-,-,0,-,-,-,-,-,-
ANARBE,2008-03-13,0.269,0.477,1.993,2.469,0.0,12.4,-,-,0,-,-,-,-,-,-
ANARBE,2008-03-14,0.225,0.31,1.951,2.261,0.0,14.0,-,-,0,-,-,-,-,-,-
ANARBE,2008-03-15,0.2,0.236,1.909,2.145,7.4,15.0,-,-,0,-,-,-,-,-,-
ANARBE,2008-03-16,0.171,0.157,1.846,2.004,0.1,10.6,-,-,0,-,-,-,-,-,-
ANARBE,2008-03-17,0.184,0.19,1.661,1.851,0.0,11.1,-,-,0,-,-,-,-,-,-
ANARBE,2008-03-18,0.207,0.251,1.723,1.973,9.9,8.9,-,-,0,-,-,-,-,-,-
ANARBE,2008-03-19,0.198,0.223,1.538,1.761,0.1,6.6,-,-,0,-,-,-,-,-,-
ANARBE,2008-03-20,0.196,0.218,1.433,1.651,0.0,4.6,-,-,0,-,-,-,-,-,-
ANARBE,2008-03-21,0.213,0.308,1.495,1.803,31.8,7.6,-,-,0,-,-,-,-,-,-
ANARBE,2008-03-22,0.66,5.117,2.078,7.195,49.1,5.2,-,-,0,-,-,-,-,-,-
ANARBE,2008-03-23,0.583,3.475,1.933,5.409,41.6,2.3,-,-,0,-,-,-,-,-,-
ANARBE,2008-03-24,0.812,8.969,1.927,10.897,42.8,8.4,-,-,0,-,-,-,-,-,-
ANARBE,2008-03-25,1.093,16.861,1.975,18.836,33.5,9.6,-,-,0,-,-,-,-,-,-
ANARBE,2008-03-26,0.828,9.214,1.926,11.14,21.1,7.2,-,-,0,-,-,-,-,-,-
ANARBE,2008-03-27,0.924,11.891,1.918,13.81,44.4,8.7,-,-,0,-,-,-,-,-,-
ANARBE,2008-03-28,0.969,12.994,1.943,14.937,8.4,12.4,-,-,0,-,-,-,-,-,-
ANARBE,2008-03-29,0.78,7.987,1.936,9.922,0.1,14.1,-,-,0,-,-,-,-,-,-
ANARBE,2008-03-30,0.709,6.264,1.928,8.192,21.4,10.8,-,-,0,-,-,-,-,-,-
ANARBE,2008-03-31,0.657,5.028,1.926,6.954,5.1,9.6,-,-,0,-,-,-,-,-,-
ANARBE,2008-04-01,0.74,7.06,1.956,9.016,52.0,10.8,-,-,0,-,-,-,-,-,-
ANARBE,2008-04-02,0.749,7.237,1.945,9.182,0.9,11.2,-,-,0,-,-,-,-,-,-
ANARBE,2008-04-03,0.667,5.248,1.928,7.176,0.0,9.6,-,-,0,-,-,-,-,-,-
ANARBE,2008-04-04,0.608,3.911,1.922,5.833,0.0,10.8,-,-,0,-,-,-,-,-,-
ANARBE,2008-04-05,0.563,3.158,1.888,5.046,0.0,8.8,-,-,0,-,-,-,-,-,-
ANARBE,2008-04-06,0.524,2.598,1.861,4.459,1.0,7.3,-,-,0,-,-,-,-,-,-
ANARBE,2008-04-07,0.494,2.209,1.836,4.045,3.8,7.9,-,-,0,-,-,-,-,-,-
ANARBE,2008-04-08,0.463,1.857,1.84,3.697,0.0,14.4,-,-,0,-,-,-,-,-,-
ANARBE,2008-04-09,0.435,1.571,1.861,3.432,1.3,15.6,-,-,0,-,-,-,-,-,-
ANARBE,2008-04-10,0.443,1.702,1.863,3.565,36.5,11.1,-,-,0,-,-,-,-,-,-
ANARBE,2008-04-11,0.532,2.762,1.849,4.611,11.9,7.9,-,-,0,-,-,-,-,-,-
ANARBE,2008-04-12,0.475,1.986,1.837,3.823,2.0,8.6,-,-,0,-,-,-,-,-,-
ANARBE,2008-04-13,0.462,1.852,1.847,3.699,14.5,8.7,-,-,0,-,-,-,-,-,-
ANARBE,2008-04-14,0.469,1.917,1.847,3.764,5.7,7.6,-,-,0,-,-,-,-,-,-
ANARBE,2008-04-15,0.446,1.676,1.833,3.509,0.0,8.3,-,-,0,-,-,-,-,-,-
ANARBE,2008-04-16,0.427,1.498,1.861,3.359,0.0,14.5,-,-,0,-,-,-,-,-,-
ANARBE,2008-04-17,0.467,1.929,1.858,3.787,25.9,11.0,-,-,0,-,-,-,-,-,-
ANARBE,2008-04-18,0.446,1.677,1.856,3.533,7.9,11.8,-,-,0,-,-,-,-,-,-
ANARBE,2008-04-19,0.425,1.482,1.901,3.383,1.5,10.7,-,-,0,-,-,-,-,-,-
ANARBE,2008-04-20,0.402,1.284,1.886,3.17,0.0,12.1,-,-,0,-,-,-,-,-,-
ANARBE,2008-04-21,0.433,1.583,1.886,3.469,25.5,9.6,-,-,0,-,-,-,-,-,-
ANARBE,2008-04-22,0.422,1.452,1.906,3.358,4.5,12.2,-,-,0,-,-,-,-,-,-
ANARBE,2008-04-23,0.455,1.782,1.894,3.676,11.2,13.0,-,-,0,-,-,-,-,-,-
ANARBE,2008-04-24,0.428,1.504,1.903,3.408,0.0,12.6,-,-,0,-,-,-,-,-,-
ANARBE,2008-04-25,0.405,1.306,1.897,3.203,0.0,14.1,-,-,0,-,-,-,-,-,-
ANARBE,2008-04-26,0.382,1.126,1.893,3.019,0.0,16.2,-,-,0,-,-,-,-,-,-
ANARBE,2008-04-27,0.357,0.95,1.895,2.845,0.0,13.9,-,-,0,-,-,-,-,-,-
ANARBE,2008-04-28,0.342,0.854,1.916,2.77,5.3,10.0,-,-,0,-,-,-,-,-,-
ANARBE,2008-04-29,0.315,0.695,1.907,2.603,8.2,12.2,-,-,0,-,-,-,-,-,-
ANARBE,2008-04-30,0.327,0.776,1.909,2.685,3.6,9.4,-,-,0,-,-,-,-,-,-
ANARBE,2008-05-01,0.279,0.52,1.887,2.407,0.1,10.6,-,-,0,-,-,-,-,-,-
ANARBE,2008-05-02,0.247,0.39,1.869,2.258,0.0,14.5,-,-,0,-,-,-,-,-,-
ANARBE,2008-05-03,0.22,0.295,1.857,2.152,0.0,19.0,-,-,0,-,-,-,-,-,-
ANARBE,2008-05-04,0.194,0.216,1.837,2.052,0.6,15.9,-,-,0,-,-,-,-,-,-
ANARBE,2008-05-05,0.194,0.215,1.829,2.044,4.3,14.7,-,-,0,-,-,-,-,-,-
ANARBE,2008-05-06,0.211,0.293,1.556,1.849,0.0,15.9,-,-,0,-,-,-,-,-,-
ANARBE,2008-05-07,0.206,0.248,1.476,1.724,0.0,19.1,-,-,0,-,-,-,-,-,-
ANARBE,2008-05-08,0.187,0.195,1.463,1.658,0.7,16.9,-,-,0,-,-,-,-,-,-
ANARBE,2008-05-09,0.19,0.204,1.476,1.68,11.4,14.1,-,-,0,-,-,-,-,-,-
ANARBE,2008-05-10,0.314,0.737,1.576,2.314,31.4,13.0,-,-,0,-,-,-,-,-,-
ANARBE,2008-05-11,0.224,0.31,1.523,1.833,0.2,13.8,-,-,0,-,-,-,-,-,-
ANARBE,2008-05-12,0.186,0.194,1.468,1.662,0.0,13.7,-,-,0,-,-,-,-,-,-
ANARBE,2008-05-13,0.207,0.26,1.319,1.579,2.5,15.6,-,-,0,-,-,-,-,-,-
ANARBE,2008-05-14,0.236,0.347,1.274,1.621,9.0,14.6,-,-,0,-,-,-,-,-,-
ANARBE,2008-05-15,0.234,0.338,1.21,1.547,0.7,15.4,-,-,0,-,-,-,-,-,-
ANARBE,2008-05-16,0.231,0.328,1.135,1.462,0.0,13.8,-,-,0,-,-,-,-,-,-
ANARBE,2008-05-17,0.228,0.318,1.09,1.409,0.0,12.8,-,-,0,-,-,-,-,-,-
ANARBE,2008-05-18,0.225,0.307,1.046,1.354,2.8,13.1,-,-,0,-,-,-,-,-,-
ANARBE,2008-05-19,0.491,2.973,1.901,4.874,75.0,11.8,-,-,0,-,-,-,-,-,-
ANARBE,2008-05-20,0.362,1.009,1.864,2.873,3.4,12.5,-,-,0,-,-,-,-,-,-
ANARBE,2008-05-21,0.272,0.493,1.778,2.27,0.0,14.4,-,-,0,-,-,-,-,-,-
ANARBE,2008-05-22,0.22,0.294,1.744,2.038,1.6,14.8,-,-,0,-,-,-,-,-,-
ANARBE,2008-05-23,0.21,0.262,1.696,1.958,17.2,17.2,-,-,0,-,-,-,-,-,-
ANARBE,2008-05-24,0.358,0.979,1.862,2.84,23.2,13.0,-,-,0,-,-,-,-,-,-
ANARBE,2008-05-25,0.35,1.018,1.847,2.865,32.8,12.2,-,-,0,-,-,-,-,-,-
ANARBE,2008-05-26,0.375,1.089,1.872,2.961,1.7,14.2,-,-,0,-,-,-,-,-,-
ANARBE,2008-05-27,0.346,0.894,1.8,2.694,3.5,12.0,-,-,0,-,-,-,-,-,-
ANARBE,2008-05-28,0.345,0.886,1.784,2.669,8.1,13.9,-,-,0,-,-,-,-,-,-
ANARBE,2008-05-29,0.369,1.073,1.586,2.659,2.8,14.5,-,-,0,-,-,-,-,-,-
ANARBE,2008-05-30,0.308,0.66,1.75,2.41,0.1,14.2,-,-,0,-,-,-,-,-,-
ANARBE,2008-05-31,0.505,2.701,1.866,4.567,56.5,14.5,-,-,0,-,-,-,-,-,-
ANARBE,2008-06-01,0.62,4.276,1.932,6.208,4.7,14.3,-,-,0,-,-,-,-,-,-
ANARBE,2008-06-02,0.513,2.465,1.891,4.356,4.3,14.4,-,-,0,-,-,-,-,-,-
ANARBE,2008-06-03,0.502,2.314,1.894,4.208,13.7,13.6,-,-,0,-,-,-,-,-,-
ANARBE,2008-06-04,0.463,1.855,1.867,3.722,0.0,14.1,-,-,0,-,-,-,-,-,-
ANARBE,2008-06-05,0.431,1.536,1.843,3.379,1.1,13.9,-,-,0,-,-,-,-,-,-
ANARBE,2008-06-06,0.411,1.362,1.83,3.192,1.8,13.1,-,-,0,-,-,-,-,-,-
ANARBE,2008-06-07,0.379,1.103,1.799,2.902,0.1,12.0,-,-,0,-,-,-,-,-,-
ANARBE,2008-06-08,0.409,1.36,1.823,3.183,16.9,13.6,-,-,0,-,-,-,-,-,-
ANARBE,2008-06-09,0.405,1.314,1.831,3.145,27.2,15.1,-,-,0,-,-,-,-,-,-
ANARBE,2008-06-10,0.468,1.928,1.864,3.792,30.0,15.8,-,-,0,-,-,-,-,-,-
ANARBE,2008-06-11,0.507,2.592,1.875,4.466,32.0,16.3,-,-,0,-,-,-,-,-,-
ANARBE,2008-06-12,0.742,7.101,1.927,9.028,0.8,16.7,-,-,0,-,-,-,-,-,-
ANARBE,2008-06-13,0.614,4.04,1.946,5.986,4.6,14.4,-,-,0,-,-,-,-,-,-
ANARBE,2008-06-14,0.554,3.033,1.942,4.975,0.2,14.2,-,-,0,-,-,-,-,-,-
ANARBE,2008-06-15,0.51,2.412,1.904,4.315,0.5,15.2,-,-,0,-,-,-,-,-,-
ANARBE,2008-06-16,0.489,2.155,1.878,4.034,21.2,15.6,-,-,0,-,-,-,-,-,-
ANARBE,2008-06-17,0.639,4.649,1.955,6.604,26.2,13.6,-,-,0,-,-,-,-,-,-
ANARBE,2008-06-18,0.56,3.121,1.95,5.071,0.1,16.2,-,-,0,-,-,-,-,-,-
ANARBE,2008-06-19,0.507,2.384,1.95,4.333,0.0,16.8,-,-,0,-,-,-,-,-,-
ANARBE,2008-06-20,0.47,1.934,1.921,3.855,0.0,18.9,-,-,0,-,-,-,-,-,-
ANARBE,2008-06-21,0.436,1.58,1.929,3.51,0.0,22.4,-,-,0,-,-,-,-,-,-
ANARBE,2008-06-22,0.407,1.322,1.932,3.254,0.8,19.3,-,-,0,-,-,-,-,-,-
ANARBE,2008-06-23,0.386,1.16,1.913,3.072,9.0,19.4,-,-,0,-,-,-,-,-,-
ANARBE,2008-06-24,0.373,1.068,1.896,2.964,0.5,18.4,-,-,0,-,-,-,-,-,-
ANARBE,2008-06-25,0.334,0.806,1.866,2.672,0.0,17.0,-,-,0,-,-,-,-,-,-
ANARBE,2008-06-26,0.327,0.767,1.732,2.499,7.4,17.5,-,-,0,-,-,-,-,-,-
ANARBE,2008-06-27,0.303,0.641,1.819,2.46,0.6,16.9,-,-,0,-,-,-,-,-,-
ANARBE,2008-06-28,0.265,0.458,1.785,2.243,0.0,17.6,-,-,0,-,-,-,-,-,-
ANARBE,2008-06-29,0.242,0.368,1.762,2.13,0.0,17.2,-,-,0,-,-,-,-,-,-
ANARBE,2008-06-30,0.214,0.276,1.75,2.026,0.0,19.0,-,-,0,-,-,-,-,-,-
ANARBE,2008-07-01,0.216,0.288,1.633,1.921,0.0,18.0,-,-,0,-,-,-,-,-,-
ANARBE,2008-07-02,0.252,0.423,1.521,1.944,4.2,15.0,-,-,0,-,-,-,-,-,-
ANARBE,2008-07-03,0.218,0.292,1.654,1.946,1.8,14.2,-,-,0,-,-,-,-,-,-
ANARBE,2008-07-04,0.193,0.214,1.5,1.714,0.0,18.7,-,-,0,-,-,-,-,-,-
ANARBE,2008-07-05,0.199,0.23,1.447,1.677,3.3,16.9,-,-,0,-,-,-,-,-,-
ANARBE,2008-07-06,0.236,0.348,1.47,1.819,6.7,14.4,-,-,0,-,-,-,-,-,-
ANARBE,2008-07-07,0.191,0.21,1.427,1.637,0.1,14.9,-,-,0,-,-,-,-,-,-
ANARBE,2008-07-08,0.173,0.162,1.358,1.521,0.0,15.4,-,-,0,-,-,-,-,-,-
ANARBE,2008-07-09,0.201,0.246,1.176,1.422,0.0,18.4,-,-,0,-,-,-,-,-,-
ANARBE,2008-07-10,0.215,0.277,1.076,1.353,0.0,20.0,-,-,0,-,-,-,-,-,-
ANARBE,2008-07-11,0.198,0.223,1.134,1.358,3.1,16.6,-,-,0,-,-,-,-,-,-
ANARBE,2008-07-12,0.238,0.392,1.303,1.695,18.9,14.1,-,-,0,-,-,-,-,-,-
ANARBE,2008-07-13,0.283,0.542,1.449,1.991,12.4,14.4,-,-,0,-,-,-,-,-,-
ANARBE,2008-07-14,0.218,0.288,1.389,1.677,0.2,15.4,-,-,0,-,-,-,-,-,-
ANARBE,2008-07-15,0.194,0.213,1.247,1.46,0.0,16.5,-,-,0,-,-,-,-,-,-
ANARBE,2008-07-16,0.191,0.206,1.158,1.364,0.0,17.6,-,-,0,-,-,-,-,-,-
ANARBE,2008-07-17,0.189,0.2,1.11,1.31,0.1,17.7,-,-,0,-,-,-,-,-,-
ANARBE,2008-07-18,0.186,0.192,1.051,1.243,0.0,17.8,-,-,0,-,-,-,-,-,-
ANARBE,2008-07-19,0.182,0.181,0.994,1.176,0.0,18.8,-,-,0,-,-,-,-,-,-
ANARBE,2008-07-20,0.18,0.177,0.999,1.176,0.5,17.7,-,-,0,-,-,-,-,-,-
ANARBE,2008-07-21,0.184,0.187,0.934,1.121,0.1,16.4,-,-,0,-,-,-,-,-,-
ANARBE,2008-07-22,0.187,0.196,0.868,1.064,0.0,15.5,-,-,0,-,-,-,-,-,-
ANARBE,2008-07-23,0.184,0.186,0.828,1.014,0.0,20.7,-,-,0,-,-,-,-,-,-
ANARBE,2008-07-24,0.191,0.205,0.788,0.993,0.1,18.5,-,-,0,-,-,-,-,-,-
ANARBE,2008-07-25,0.198,0.225,0.749,0.974,0.0,19.0,-,-,0,-,-,-,-,-,-
ANARBE,2008-07-26,0.198,0.224,0.738,0.962,0.8,20.0,-,-,0,-,-,-,-,-,-
ANARBE,2008-07-27,0.198,0.224,0.701,0.925,0.0,19.7,-,-,0,-,-,-,-,-,-
ANARBE,2008-07-28,0.197,0.222,0.736,0.958,5.8,17.0,-,-,0,-,-,-,-,-,-
ANARBE,2008-07-29,0.196,0.219,0.739,0.958,0.1,17.8,-,-,0,-,-,-,-,-,-
ANARBE,2008-07-30,0.194,0.213,0.679,0.892,0.0,20.6,-,-,0,-,-,-,-,-,-
ANARBE,2008-07-31,0.191,0.204,0.622,0.826,0.9,23.8,-,-,0,-,-,-,-,-,-
ANARBE,2008-08-01,0.186,0.192,0.668,0.859,1.3,17.5,-,-,0,-,-,-,-,-,-
ANARBE,2008-08-02,0.183,0.185,0.65,0.836,0.0,17.6,-,-,0,-,-,-,-,-,-
ANARBE,2008-08-03,0.182,0.182,0.65,0.833,0.1,19.7,-,-,0,-,-,-,-,-,-
ANARBE,2008-08-04,0.181,0.179,0.627,0.806,0.2,20.6,-,-,0,-,-,-,-,-,-
ANARBE,2008-08-05,0.18,0.177,0.623,0.8,3.0,21.1,-,-,0,-,-,-,-,-,-
ANARBE,2008-08-06,0.182,0.184,0.692,0.876,28.9,20.3,-,-,0,-,-,-,-,-,-
ANARBE,2008-08-07,0.189,0.201,0.866,1.066,4.7,17.5,-,-,0,-,-,-,-,-,-
ANARBE,2008-08-08,0.182,0.181,0.678,0.859,0.7,17.5,-,-,0,-,-,-,-,-,-
ANARBE,2008-08-09,0.179,0.175,0.615,0.789,0.0,17.6,-,-,0,-,-,-,-,-,-
ANARBE,2008-08-10,0.177,0.169,0.587,0.756,0.0,17.2,-,-,0,-,-,-,-,-,-
ANARBE,2008-08-11,0.183,0.186,0.551,0.737,0.1,20.3,-,-,0,-,-,-,-,-,-
ANARBE,2008-08-12,0.193,0.21,0.663,0.873,9.5,17.8,-,-,0,-,-,-,-,-,-
ANARBE,2008-08-13,0.19,0.204,0.601,0.805,1.5,16.0,-,-,0,-,-,-,-,-,-
ANARBE,2008-08-14,0.19,0.201,0.571,0.773,7.5,14.1,-,-,0,-,-,-,-,-,-
ANARBE,2008-08-15,0.217,0.289,1.068,1.357,22.0,13.5,-,-,0,-,-,-,-,-,-
ANARBE,2008-08-16,0.196,0.219,0.732,0.951,0.0,16.8,-,-,0,-,-,-,-,-,-
ANARBE,2008-08-17,0.192,0.208,0.628,0.836,0.4,18.1,-,-,0,-,-,-,-,-,-
ANARBE,2008-08-18,0.189,0.199,0.574,0.773,1.4,18.0,-,-,0,-,-,-,-,-,-
ANARBE,2008-08-19,0.189,0.199,0.604,0.803,2.5,16.1,-,-,0,-,-,-,-,-,-
ANARBE,2008-08-20,0.188,0.196,0.585,0.781,1.3,16.5,-,-,0,-,-,-,-,-,-
ANARBE,2008-08-21,0.184,0.188,0.537,0.726,2.0,17.9,-,-,0,-,-,-,-,-,-
ANARBE,2008-08-22,0.193,0.211,0.743,0.953,10.2,16.3,-,-,0,-,-,-,-,-,-
ANARBE,2008-08-23,0.19,0.202,0.673,0.874,0.9,15.1,-,-,0,-,-,-,-,-,-
ANARBE,2008-08-24,0.184,0.186,0.606,0.793,0.0,16.2,-,-,0,-,-,-,-,-,-
ANARBE,2008-08-25,0.181,0.18,0.603,0.783,3.4,16.4,-,-,0,-,-,-,-,-,-
ANARBE,2008-08-26,0.184,0.188,0.617,0.806,0.0,17.8,-,-,0,-,-,-,-,-,-
ANARBE,2008-08-27,0.187,0.196,0.689,0.885,0.0,18.9,-,-,0,-,-,-,-,-,-
ANARBE,2008-08-28,0.164,0.141,0.564,0.705,0.0,18.6,-,-,0,-,-,-,-,-,-
ANARBE,2008-08-29,0.181,0.181,0.482,0.663,0.0,20.8,-,-,0,-,-,-,-,-,-
ANARBE,2008-08-30,0.187,0.194,0.395,0.59,0.0,22.0,-,-,0,-,-,-,-,-,-
ANARBE,2008-08-31,0.189,0.2,0.434,0.634,0.0,18.9,-,-,0,-,-,-,-,-,-
ANARBE,2008-09-01,0.184,0.187,0.528,0.715,0.2,18.0,-,-,0,-,-,-,-,-,-
ANARBE,2008-09-02,0.178,0.172,0.502,0.674,0.0,18.6,-,-,0,-,-,-,-,-,-
ANARBE,2008-09-03,0.202,0.24,0.433,0.673,1.0,18.2,-,-,0,-,-,-,-,-,-
ANARBE,2008-09-04,0.221,0.294,0.372,0.666,3.2,16.9,-,-,0,-,-,-,-,-,-
ANARBE,2008-09-05,0.221,0.293,0.336,0.629,0.7,19.7,-,-,0,-,-,-,-,-,-
ANARBE,2008-09-06,0.222,0.301,0.377,0.678,2.0,16.5,-,-,0,-,-,-,-,-,-